Other Public Products
Issued by NWS Grand Forks, ND

Home | Current Version | Previous Version | Graphics & Text | Print | Product List | Glossary On
Versions: 1 2 3 4 5 6 7 8 9 10 11 12 13 14 15 16 17 18 19 20 21 22 23 24 25 26 27 28 29 30 31 32 33 34 35 36 37 38 39 40 41 42 43 44 45 46 47 48 49 50
000
FPUS83 KFGF 260210
OPUFGF
PRAIRIE TO PINES WEATHER ROUNDUP
NATIONAL WEATHER SERVICE EASTERN NORTH DAKOTA/GRAND FORKS ND
900 PM CDT SAT APR 25 2015

 **SATELLITE DATA USED TO AUGMENT SKY COVER AT AUTOMATED STATIONS**
 *****  WEATHER ACROSS EASTERN NORTH DAKOTA  *****

CITY           SKY/WX    TMP DP  RH WIND       PRES   REMARKS
GRAND FORKS    MOCLDY    58  38  47 SE5       29.93R
GRAND FORKS AF CLEAR     50  38  62 S1        29.93R
GRAND CITY NWS   N/A     55 N/A N/A S3          N/A
BUXTON         NOT AVBL
DEVILS LAKE    MOCLDY    50  39  66 SE9       29.92R
FARGO          CLEAR     56  35  45 E5        29.93R
WAHPETON ARPT  CLEAR     50  36  57 S6        29.94R
$$

 *****  WEATHER ACROSS CENTRAL AND WESTERN NORTH DAKOTA  *****

CITY           SKY/WX    TMP DP  RH WIND       PRES   REMARKS
JAMESTOWN      CLOUDY    50  40  68 SE8       29.91R
BISMARCK       CLOUDY    48  43  82 E6        29.89R
MINOT          CLOUDY    52  41  66 SE13      29.86R
MINOT AFB      CLOUDY    52  46  81 SE10      29.85R
GARRISON         N/A     48  41  76 SE12      29.86R
WILLISTON      LGT RAIN  47  45  93 W8        29.81R
DICKINSON      CLOUDY    47  44  90 SE10      29.82R FOG
HETTINGER      CLOUDY    48  45  89 SE7       29.85R
$$

 *****  OTHER OBSERVATIONS NORTHEAST NORTH DAKOTA  *****

CITY           SKY/WX    TMP DP  RH WIND       PRES   REMARKS
WALHALLA       FAIR      54  37  54 SE3       29.94R
LANGDON        FAIR      48  37  66 S8        29.94R
CAVALIER       MOCLDY    55  39  54 CALM      29.94R
GRAFTON        CLOUDY    55  37  50 S6        29.94R
CANDO          MOCLDY    48  39  71 SE8       29.93R
FORT TOTTEN    NOT AVBL
ROLLA          CLOUDY    50  39  66 SE7       29.93R
RUGBY          NOT AVBL
 ***** THE ABOVE OBSERVATIONS ARE NON NWS ARE NOT QUALITY
        CONTROLLED AND MAY MIS-REPORT RAIN FOR SNOW...
$$

 *****  OTHER OBSERVATIONS SOUTHEAST NORTH DAKOTA *****

CITY           SKY/WX    TMP DP  RH WIND       PRES   REMARKS
COOPERSTOWN    NOT AVBL
VALLEY CITY    FAIR      48  41  76 S3        29.93R
OAKES            N/A     48  43  81 SE7       29.92R
GWINNER        MOCLDY    48  41  76 E6        29.94R
SHEYENNE NWR     N/A     47  39  73 S5        29.95
BUFFALO        NOT AVBL
WYNDMERE       NOT AVBL
 ***** THE ABOVE OBSERVATIONS ARE NON NWS ARE NOT QUALITY
       CONTROLLED AND MAY MIS-REPORT RAIN FOR SNOW...
$$

  *****  WEATHER ACROSS NORTHERN MINNESOTA  *****

CITY           SKY/WX    TMP DP  RH WIND       PRES   REMARKS
FLAG ISLAND    CLEAR     52  28  40 E3        30.00R
WARROAD        CLEAR     43  34  70 NE12      30.00R
ROSEAU         CLEAR     48  32  53 E9        29.98R
HALLOCK        CLEAR     55  27  33 E7        29.95R
THF RVR FALLS  CLEAR     54  30  40 E7        29.97R
HALSTAD        NOT AVBL
FOSSTON        CLEAR     46  27  46 E5        29.97R
BAUDETTE       CLEAR     47  29  49 E8        29.99R
WASKISH        CLEAR     50  34  53 CALM      29.98R
CROOKSTON      CLEAR     55  32  41 E7        29.95R
$$
  *****  WEATHER ACROSS CENTRAL AND WEST MINNESOTA  *****

CITY           SKY/WX    TMP DP  RH WIND       PRES   REMARKS
BEMIDJI        CLEAR     46  28  50 CALM      29.97R
PARK RAPIDS    CLEAR     51  28  41 E6        29.96R
WADENA         CLEAR     48  28  46 E7        29.96R
DETROIT LAKES  CLEAR     54  28  37 SE6       29.97R
MOORHEAD       CLEAR     54  32  43 E7        29.95R
FERGUS FALLS   CLEAR     54  32  43 E5        29.96R
ELBOW LAKE     FAIR      50  41  70 E3        29.94R
MORRIS MN      CLEAR     50  39  66 E5        29.93R
STAPLES        CLEAR     48  27  43 E3        29.97R
WHEATON        MOCLDY    48  41  76 E6        29.95R
$$
  *****  WEATHER ELSEWHERE ACROSS MINNESOTA  *****

CITY           SKY/WX    TMP DP  RH WIND       PRES   REMARKS
DULUTH         CLEAR     36  16  44 NE10      30.02R
INTRNTL FALLS  CLEAR     41  25  53 NE3       30.00R
ELY            CLEAR     41  16  36 S5        30.02R
CLOQUET        CLEAR     36  12  38 NE6       30.01S
BRAINERD       CLEAR     48  19  31 E8        29.98R
HIBBING        CLEAR     40  12  32 SE8       30.00R
ALEXANDRIA     CLEAR     48  35  60 E6        29.95R
SAINT CLOUD    CLEAR     49  30  48 NE8       29.94R
MINNEAPOLIS    CLEAR     58  20  22 NE3       29.90R
$$

  *****  WEATHER ACROSS SOUTH DAKOTA  *****

CITY           SKY/WX    TMP DP  RH WIND       PRES   REMARKS
SIOUX FALLS    CLOUDY    55  39  54 E13       29.89R
BROOKINGS      CLOUDY    52  41  66 SE12      29.91R
WATERTOWN      PTCLDY    50  42  74 NE8       29.90R
HURON          CLOUDY    56  43  61 E8        29.87R
SISSETON         N/A     51  43  74 CALM      29.92R
ABERDEEN       CLOUDY    52  42  69 E9        29.91R
MITCHELL       MOCLDY    53  45  74 E7        29.87R
PIERRE         CLOUDY    55  46  71 SE9       29.84R
MOBRIDGE       CLOUDY    52  43  71 E15       29.84R
RAPID CITY     LGT RAIN  51  48  89 NE3       29.82R
$$

  *****  SOME WEATHER IN NEARBY STATES *****

CITY           SKY/WX    TMP DP  RH WIND       PRES   REMARKS
GLASGOW MT     PTCLDY    44  39  82 N10       29.82R
GREAT FALLS MT CLOUDY    48  28  46 NE13      29.84R
CHEYENNE WY    MOCLDY    48  39  71 E10       29.79R
SCOTTSBLUFF NE LGT RAIN  55  45  68 SE3       29.76R
OMAHA NE       CLOUDY    51  45  79 NE8       29.84R
DES MOINES IA  CLOUDY    51  41  68 NE12      29.85R
DAVENPORT IA   CLOUDY    45  37  73 NE16      29.84R
CHICAGO IL     CLOUDY    42  31  64 NE12      29.84R
EAU CLAIRE WI  CLEAR     52  26  36 NE9       29.90R
LA CROSSE WI   CLEAR     51  17  26 E3        29.89R
$$

  *****  SOME NATIONAL WEATHER *****

CITY           SKY/WX    TMP DP  RH WIND       PRES   REMARKS
LA GUARDIA NY  MOCLDY    51  34  52 SE3       29.70S
RALEIGH NC     LGT RAIN  51  50  96 NE7       29.65S VSB 1/2
ATLANTA GA     CLOUDY    69  66  90 SW7       29.65S
NEW ORLEANS LA MOCLDY    72  63  73 SW8       29.72R
OKLAHOMA CITY  PTCLDY    70  51  51 S5        29.64R
ALBUQUERQUE NM MOCLDY    65  26  23 SW6       29.76S
SALT LAKE CITY CLOUDY    47  43  86 N9        29.70F
LOS ANGELES CA MOCLDY    59  51  75 W28G35    29.87R
BOISE ID       MOCLDY    53  30  41 W20G25    29.81R
SEATTLE WA     MOSUNNY   52  38  58 SW6       30.04R
$$

*** WEATHER ACROSS MANITOBA...SASKATCHEWAN AND ONTARIO ***
                ***ONTARIO***

CITY           SKY/WX    TMP DP  RH WIND       PRES   REMARKS
GERALDTON      CLEAR     37  21  52 N6        30.06R
THUNDER BAY    CLEAR     34  23  64 N2        30.06R
SIOUX LOOKOUT  CLEAR     39  14  35 E3        30.06R
TORONTO        PTCLDY    41  27  56 N12       29.83S
BIG TROUT LK   CLEAR     34  27  75 E6        30.18R
PICKLE LAKE    PTCLDY    39  14  35 NE6       30.10R
DRYDEN         CLEAR     46  25  42 E3        30.04R
KENORA         PTCLDY    48  28  46 E6        30.03R
$$
                *** MANITOBA***

CITY           SKY/WX    TMP DP  RH WIND       PRES   REMARKS
BRANDON        PTCLDY    52  39  62 SE6       29.93R
DAUPHIN        CLOUDY    54  39  58 E10       29.95R
ISLAND LAKE    PTCLDY    43  18  36 E7        30.11R
PILOT MOUND      N/A     46  36  66 SE9         N/A
THE PAS        CLOUDY    34  30  86 NE5       30.09S
THOMPSON       CLOUDY    32  30  93 N3        30.16R
WINNIPEG       MOCLDY    52  30  43 E9        29.98R
LYNN LAKE      CLEAR     36  19  51 N8        30.16R
CHURCHILL      MOCLDY    27  19  74 E7        30.28R WCI  19
GILLAM         PTCLDY    39  19  45 E5        30.16R
$$
                ***SASKATCHEWAN***

CITY           SKY/WX    TMP DP  RH WIND       PRES   REMARKS
ESTEVAN        CLOUDY    54  39  58 SE15      29.82R
KINDERSLEY     LGT SNOW  30  28  93 N13       29.93S WCI  20
LLOYDMINSTER   CLOUDY    36  21  55 N13       30.02S
PRINCE ALBERT  LGT SNOW  32  30  93 NE10G20   30.04R VSB 1   WCI  24
REGINA         CLOUDY    50  41  71 E13       29.79F



USA.gov is the U.S. government's official web portal to all federal, state and local government web resources and services.